Regional Weather Roundup
Issued by NWS Boston, MA

Current Version | Previous Version | Text Only | Print | Product List | Glossary Off
Versions: 1 2 3 4 5 6 7 8 9 10 11 12 13 14 15 16 17 18 19 20 21 22 23 24 25 26 27

000
ASUS41 KBOX 242110
RWRBOX

REGIONAL WEATHER ROUNDUP
NATIONAL WEATHER SERVICE TAUNTON MA
500 PM EDT MON APR 24 2017

NOTE:  "FAIR" INDICATES FEW OR NO CLOUDS BELOW 12,000 FEET WITH NO
SIGNIFICANT WEATHER AND/OR OBSTRUCTIONS TO VISIBILITY.

MAZALL-242200-
EASTERN MASSACHUSETTS

CITY           SKY/WX    TMP DP  RH WIND       PRES   REMARKS
BOSTON         CLOUDY    61  46  57 E15       30.14F
BEVERLY        MOSUNNY   62  42  47 SE10      30.14F
LAWRENCE       SUNNY     71  34  25 VRB7G16   30.14S
BEDFORD        MOSUNNY   70  34  26 SE12      30.12R
BLUE HILL        N/A     69  38  32 SE9       30.13S
NORWOOD        MOSUNNY   72  38  29 SE8       30.13S
MARSHFIELD     CLOUDY    64  43  45 S10       30.15S
PLYMOUTH       CLOUDY    59  38  45 SE8       30.17S
TAUNTON        CLOUDY    62  41  46 SE6       30.16R
NEW BEDFORD    CLOUDY    55  42  61 SE7       30.17R
$$

MAZALL-242200-
CAPE COD AND THE ISLANDS

CITY           SKY/WX    TMP DP  RH WIND       PRES   REMARKS
FALMOUTH       MOSUNNY   54  43  66 MISG      30.19R
HYANNIS        CLOUDY    51  40  65 S7        30.17S
CHATHAM        CLOUDY    50  45  83 S6        30.20S
PROVINCETOWN   MOSUNNY   57  41  55 S13       30.18S
NANTUCKET      CLOUDY    48  43  82 SE8       30.20R
MARTHAS VNYRD  CLOUDY    51  43  74 S5        30.18S
$$

MAZALL-242200-
CENTRAL AND WESTERN MASSACHUSETTS

CITY           SKY/WX    TMP DP  RH WIND       PRES   REMARKS
WORCESTER      MOSUNNY   68  27  21 SE8       30.13S
FITCHBURG      SUNNY     75  31  19 E8        30.11S
ORANGE         SUNNY     72  26  18 SW5       30.11S
SPRINGFIELD    PTSUNNY   74  31  20 SE5       30.09F
WESTFIELD      PTSUNNY   71  33  24 S3        30.10F
NORTH ADAMS    SUNNY     73  35  25 W8        30.08F
PITTSFIELD     SUNNY     72  28  19 SE8       30.09S
$$

RIZALL-242200-
RHODE ISLAND

CITY           SKY/WX    TMP DP  RH WIND       PRES   REMARKS
PROVIDENCE     CLOUDY    55  42  61 SE10      30.17S
NEWPORT        CLOUDY    50  44  80 S7        30.17S
BLOCK ISLAND   CLOUDY    49  46  90 SE8       30.19S
SMITHFIELD     CLOUDY    60  39  45 VRB3      30.16R
WESTERLY       CLOUDY    51  45  79 SE7       30.18R
$$

CTZALL-242200-
CONNECTICUT

CITY           SKY/WX    TMP DP  RH WIND       PRES   REMARKS
BRADLEY INTL   CLOUDY    70  41  34 S10       30.11S
HARTFORD       CLOUDY    65  43  44 S8        30.13R
BRIDGEPORT     CLOUDY    54  43  66 E10       30.16S
DANBURY        CLOUDY    61  36  39 SE7       30.14F
GROTON         CLOUDY    50  43  77 SE8       30.18R
NEW HAVEN      CLOUDY    53  41  63 E7        30.16S
CHESTER        FAIR      59  39  47 SE7       30.16S
MERIDEN        CLOUDY    62  40  44 S7        30.15S
WILLIMANTIC    CLOUDY    64  41  42 S7        30.15R
OXFORD         CLOUDY    61  37  41 S8        30.14F
$$

MEZ002-015-021-024-NHZ003-005-008-011-012-014-VTZ005-008-242200-
NORTHERN NEW ENGLAND

CITY           SKY/WX    TMP DP  RH WIND       PRES   REMARKS
PORTLAND ME    SUNNY     58  36  43 E12       30.18R
BANGOR ME      MOSUNNY   57  30  35 N5        30.20R
CONCORD NH     SUNNY     75  34  22 NW5       30.10S
MANCHESTER NH  PTSUNNY   75  30  19 SW5       30.09S
NASHUA NH      MOSUNNY   74  32  21 VRB6      30.11S
PORTSMOUTH NH  MOSUNNY   60  39  45 E12       30.13R
JAFFREY NH     SUNNY     72  30  21 VRB3      30.12S
KEENE NH       SUNNY     73  32  22 CALM      30.09F
BURLINGTON VT  MOSUNNY   52  30  43 N13       30.22F
MT. WASHINGTON MOSUNNY   36  32  87 W23G31      N/A  WCI  24
$$

NYZ052-076-242200-
EASTERN NEW YORK

CITY           SKY/WX    TMP DP  RH WIND       PRES   REMARKS
ALBANY         MOSUNNY   73  34  23 N6        30.10S
NEW YORK CITY  CLOUDY    57  43  59 NE8       30.14R
$$

ANZALL-242200-
MARINE OBSERVATIONS

STATION/POSITION TIME  TEMP    WIND        PRES    VSBY  WAVE
                       AIR SEA DIR/SP/G                  HT/PER
                 (UTC) (F)     (DEG/KT/KT) (MB)    (MI)  (FT/S)
BOSTON BUOY      1950   49 48  120/  8/ 10 1020.6          2/10
BUZZARDS BAY     2000   47     150/  7/  7 1022.5S
NANTUCKET SOUND  2050      47              1022.5R         1
MASS BAY-STELLWA 2004   49 46  160/ 10/ 10 1020.5F         2/10
ISLE OF SHOALS   2000   49     140/ 16/ 17 1020.4F
S OF BLOCK IS    2055      48                N/A           2/10
$$

......................KEY.........................
  SKY/WX - SKY CONDITION/PRESENT WEATHER
  TMP    - TEMPERATURE IN FAHRENHEIT
  DWPT   - DEWPOINT IN FAHRENHEIT
  RH     - RELATIVE HUMIDITY IN PERCENT
  WIND   - DIRECTION AND SPEED IN MPH
  PRES   - MEAN SEA LEVEL PRESSURE IN INCHES OF HG
  WCI    - WIND CHILL INDEX
  VSB    - VISIBILITY IN MILES
  HX     - HEAT INDEX
  TC     - TEMPERATURE IN CELSIUS
  VRB    - VARIABLE WIND DIRECTION
  N/A    - NOT AVAILABLE




USA.gov is the U.S. government's official web portal to all federal, state and local government web resources and services.